Portada
METAR-TAF:

METAR-TAF

Aeroports :

Maple Lake Municipal Airport

Maple Lake, Minnesota, Estats Units d'Amèrica

latitud: 45-14-10N, longitud: 093-59-08W, altitud: 313 m

Observació

L'informe es va fer fa 29 minuts, a les 12:55 UTC
Vent calma
Temperatura -12°C
Humitat 92%
Pressió 1016 hPa
Visibilitat: 11.3 km
Cel clar

METAR: KMGG 111255Z AUTO 00000KT 7SM CLR M12/M13 A3001 RMK AO2 T11171128

Hora: 07:24 (13:24 UTC)


TAF: manca

Observacions i pronòstics meteorològics de més de 4000 aeroports (METAR i TAF).

Les estacions disponibles són els punts grocs i vermells al mapa.

Posi el ratolí al punt desitjat per veure el nom de l'estació.

Feu clic per veure les observacions i els pronòstics meteorològics.

Per canviar el mapa: feu clic els botons verds amb una creu de color negre per apropar; al botó verd amb un guió per allunyar la imatge; o en les fletxes verdes per a mapes adjacents.


METAR-TAF: